Terminal Aerodrome Forecast
Issued by NWS

Home | Current Version | Previous Version | Text Only | Print | Product List | Glossary On
Versions: 1 2 3 4 5 6 7 8 9 10 11 12 13 14 15 16 17 18 19 20 21 22 23
000
FTUS43 KJKL 220912 AAC
TAFSME
TAF AMD
KSME 220912Z 2209/2306 00000KT 3SM BR SCT010
      TEMPO 2209/2212 00000KT 1/2SM FG VV002
     FM221300 VRB04KT P6SM SKC=

USA.gov is the U.S. government's official web portal to all federal, state and local government web resources and services.